| time (UTC) | temp F | wind direction | speed knots | gust knots | rain 1hr in | rain 24hr in | rain mn in | humidity % | barometer mb |
| 20260906074500 | 49 | 344 | 13.0 | 22.6 | 0.00 | 0.00 | 0.00 | 62 | |
| 20260906072131 | 48 | 353 | 12.2 | 20.9 | 0.00 | 0.00 | 0.00 | 65 | |
| 20260906064131 | 48 | 351 | 13.0 | 22.6 | 0.00 | 0.00 | 0.00 | 68 | |
| 20260906062500 | 47 | 352 | 12.2 | 20.0 | 0.00 | 0.00 | 0.00 | 72 | |
| 20260906060456 | 47 | 339 | 7.8 | 16.5 | 0.00 | 0.00 | 0.00 | 78 | |
| 20260906054459 | 47 | 339 | 7.8 | 13.9 | 0.00 | 0.00 | 0.00 | 80 | |
| 20260906052500 | 47 | 325 | 7.8 | 16.5 | 0.00 | 0.00 | 0.00 | 81 | |
| 20260906050501 | 46 | 317 | 7.8 | 11.3 | 0.00 | 0.00 | 0.00 | 83 | |
| 20260906044457 | 46 | 317 | 7.8 | 13.0 | 0.00 | 0.00 | 0.00 | 84 | |
| 20260906042130 | 46 | 317 | 7.8 | 12.2 | 0.00 | 0.00 | 0.00 | 85 | |
| 20260906040500 | 45 | 311 | 7.0 | 9.6 | 0.00 | 0.00 | 0.00 | 92 | |
| 20260906032459 | 45 | 312 | 7.0 | 11.3 | 0.00 | 0.00 | 0.00 | 92 | |
| 20260906030501 | 45 | 316 | 7.8 | 12.2 | 0.00 | 0.00 | 0.00 | 93 | |
| 20260906024500 | 45 | 319 | 6.1 | 13.0 | 0.00 | 0.00 | 0.00 | 96 | |
| 20260906022501 | 46 | 310 | 7.0 | 9.6 | 0.00 | 0.00 | 0.00 | 94 | |
| 20260906020500 | 46 | 311 | 7.0 | 10.4 | 0.00 | 0.00 | 0.00 | 93 | |
| 20260906014501 | 46 | 324 | 6.1 | 11.3 | 0.00 | 0.00 | 0.00 | 92 | |
| 20260906012458 | 47 | 322 | 7.0 | 13.0 | 0.00 | 0.00 | 0.00 | 92 | |
| 20260906010501 | 47 | 317 | 8.7 | 13.0 | 0.00 | 0.00 | 0.00 | 92 | |
| 20260906004501 | 47 | 325 | 4.3 | 9.6 | 0.00 | 0.00 | 0.00 | 91 | |
| 20260906000130 | 47 | 329 | 4.3 | 7.0 | 0.00 | 0.00 | 0.00 | 92 | |
| 20260905234459 | 46 | 339 | 5.2 | 9.6 | 0.00 | 0.00 | 0.00 | 91 | |
| 20260905232458 | 47 | 346 | 6.1 | 13.0 | 0.00 | 0.00 | 0.00 | 89 | |
| 20260905230459 | 48 | 341 | 7.8 | 13.0 | 0.00 | 0.00 | 0.00 | 89 | |
| 20260905224458 | 48 | 341 | 7.8 | 13.9 | 0.00 | 0.00 | 0.00 | 88 | |
| 20260905222459 | 47 | 343 | 7.8 | 13.9 | 0.00 | 0.00 | 0.00 | 91 | |
| 20260905220500 | 48 | 348 | 7.8 | 13.9 | 0.00 | 0.00 | 0.00 | 89 | |
| 20260905214459 | 48 | 345 | 7.8 | 13.0 | 0.00 | 0.00 | 0.00 | 89 | |
| 20260905212458 | 48 | 345 | 7.8 | 16.5 | 0.00 | 0.00 | 0.00 | 90 | |
| 20260905210456 | 48 | 341 | 7.8 | 14.8 | 0.00 | 0.00 | 0.00 | 91 | |
| 20260905204458 | 48 | 343 | 7.0 | 13.0 | 0.00 | 0.00 | 0.00 | 91 | |
| 20260905200129 | 48 | 342 | 6.1 | 11.3 | 0.00 | 0.00 | 0.00 | 92 | |
| 20260905194129 | 47 | 328 | 5.2 | 11.3 | 0.00 | 0.00 | 0.00 | 95 | |
| 20260905192129 | 47 | 338 | 5.2 | 10.4 | 0.00 | 0.00 | 0.00 | 94 | |
| 20260905190129 | 48 | 343 | 7.8 | 13.9 | 0.00 | 0.00 | 0.00 | 92 | |
| 20260905184459 | 48 | 342 | 7.0 | 13.0 | 0.00 | 0.00 | 0.00 | 92 | |
| 20260905180127 | 48 | 345 | 7.8 | 13.0 | 0.00 | 0.00 | 0.00 | 92 | |
| 20260905174127 | 49 | 2 | 7.8 | 14.8 | 0.00 | 0.00 | 0.00 | 94 | |
| 20260905172456 | 50 | 346 | 7.8 | 13.0 | 0.00 | 0.00 | 0.00 | 85 | |
| 20260905170457 | 51 | 352 | 7.8 | 11.3 | 0.00 | 0.00 | 0.00 | 85 | |
| 20260905164129 | 51 | 349 | 9.6 | 19.1 | 0.00 | 0.00 | 0.00 | 85 | |
| 20260905162453 | 51 | 357 | 7.0 | 13.0 | 0.00 | 0.00 | 0.00 | 87 | |
| 20260905160456 | 51 | 8 | 8.7 | 15.6 | 0.00 | 0.00 | 0.00 | 88 | |
| 20260905154129 | 53 | 351 | 7.8 | 13.9 | 0.00 | 0.00 | 0.00 | 78 | |
| 20260905152457 | 53 | 343 | 9.6 | 14.8 | 0.00 | 0.00 | 0.00 | 80 | |
| 20260905150457 | 54 | 344 | 10.4 | 14.8 | 0.00 | 0.00 | 0.00 | 80 | |
| 20260905144457 | 54 | 351 | 8.7 | 18.2 | 0.00 | 0.00 | 0.00 | 77 | |
| 20260905142457 | 55 | 346 | 8.7 | 17.4 | 0.00 | 0.00 | 0.00 | 80 | |
| 20260905140457 | 55 | 359 | 7.8 | 12.2 | 0.00 | 0.00 | 0.00 | 80 | |
| 20260905134456 | 54 | 350 | 8.7 | 16.5 | 0.00 | 0.00 | 0.00 | 87 | |
| 20260905132128 | 56 | 356 | 9.6 | 15.6 | 0.00 | 0.00 | 0.00 | 81 | |
| 20260905130501 | 55 | 5 | 9.6 | 16.5 | 0.00 | 0.00 | 0.00 | 81 | |
| 20260905124456 | 55 | 339 | 7.8 | 13.9 | 0.00 | 0.00 | 0.00 | 85 | |
| 20260905122128 | 57 | 335 | 7.0 | 14.8 | 0.00 | 0.00 | 0.00 | 81 | |
| 20260905120456 | 55 | 8 | 6.1 | 9.6 | 0.00 | 0.00 | 0.00 | 87 | |
| 20260905110456 | 56 | 322 | 6.1 | 10.4 | 0.00 | 0.00 | 0.00 | 81 | |
| 20260905104458 | 55 | 334 | 5.2 | 11.3 | 0.00 | 0.00 | 0.00 | 85 | |
| 20260905102457 | 55 | 317 | 8.7 | 13.0 | 0.00 | 0.00 | 0.00 | 89 | |
| 20260905100457 | 54 | 309 | 5.2 | 7.8 | 0.00 | 0.00 | 0.00 | 90 | |
| 20260905094456 | 53 | 319 | 4.3 | 7.0 | 0.00 | 0.00 | 0.00 | 94 | |
| 20260905092456 | 53 | 315 | 5.2 | 7.8 | 0.00 | 0.00 | 0.00 | 92 | |
| 20260905090457 | 53 | 313 | 7.0 | 10.4 | 0.00 | 0.00 | 0.00 | 96 | |
| 20260905084457 | 52 | 309 | 7.0 | 9.6 | 0.00 | 0.00 | 0.00 | 99 | |
| 20260905082458 | 51 | 312 | 5.2 | 8.7 | 0.00 | 0.00 | 0.00 | 100 |